| time (UTC) | temp F | wind direction | speed MPH | gust MPH | rain 1hr in | rain 24hr in | rain mn in | humidity % | barometer mb |
| 20260902123111 | 79 | 163 | 1.0 | 4.0 | 0.00 | 0.00 | 0.00 | 78 | 1016.4 |
| 20260902122634 | 79 | 163 | 1.0 | 4.0 | 0.00 | 0.00 | 0.00 | 78 | 1016.3 |
| 20260902122057 | 79 | 163 | 2.0 | 2.0 | 0.00 | 0.00 | 0.00 | 78 | 1016.2 |
| 20260902121631 | 79 | 163 | 1.0 | 2.0 | 0.00 | 0.00 | 0.00 | 78 | 1016.3 |
| 20260902121059 | 79 | 163 | 1.0 | 2.0 | 0.00 | 0.00 | 0.00 | 78 | 1016.2 |
| 20260902120618 | 79 | 0 | 0.0 | 2.0 | 0.00 | 0.00 | 0.00 | 78 | 1016.3 |
| 20260902120144 | 79 | 163 | 1.0 | 2.0 | 0.00 | 0.00 | 0.00 | 77 | 1016.2 |
| 20260902115614 | 79 | 163 | 1.0 | 2.0 | 0.00 | 0.00 | 0.00 | 77 | 1016.2 |
| 20260902115047 | 79 | 163 | 1.0 | 2.0 | 0.00 | 0.00 | 0.00 | 76 | 1016.2 |
| 20260902114625 | 79 | 163 | 1.0 | 2.0 | 0.00 | 0.00 | 0.00 | 76 | 1016.3 |
| 20260902114103 | 79 | 0 | 0.0 | 2.0 | 0.00 | 0.00 | 0.00 | 76 | 1016.3 |
| 20260902113643 | 79 | 0 | 0.0 | 2.0 | 0.00 | 0.00 | 0.00 | 76 | 1016.3 |
| 20260902113123 | 79 | 22 | 1.0 | 2.0 | 0.00 | 0.00 | 0.00 | 76 | 1016.3 |
| 20260902112611 | 79 | 0 | 0.0 | 4.0 | 0.00 | 0.00 | 0.00 | 76 | 1016.3 |
| 20260902112047 | 79 | 23 | 1.0 | 4.0 | 0.00 | 0.00 | 0.00 | 76 | 1016.4 |
| 20260902111535 | 79 | 25 | 2.0 | 4.0 | 0.00 | 0.00 | 0.00 | 77 | 1016.4 |
| 20260902111023 | 79 | 26 | 3.0 | 4.0 | 0.00 | 0.00 | 0.00 | 77 | 1016.4 |
| 20260902110512 | 79 | 24 | 2.0 | 3.0 | 0.00 | 0.00 | 0.00 | 76 | 1016.4 |
| 20260902110008 | 80 | 24 | 2.0 | 3.0 | 0.00 | 0.00 | 0.00 | 76 | 1016.4 |
| 20260902105452 | 80 | 23 | 1.0 | 3.0 | 0.00 | 0.00 | 0.00 | 75 | 1016.3 |
| 20260902105043 | 80 | 24 | 2.0 | 3.0 | 0.00 | 0.00 | 0.00 | 75 | 1016.3 |
| 20260902104532 | 80 | 24 | 2.0 | 3.0 | 0.00 | 0.00 | 0.00 | 75 | 1016.2 |
| 20260902104024 | 80 | 25 | 2.0 | 3.0 | 0.00 | 0.00 | 0.00 | 75 | 1016.2 |
| 20260902103516 | 80 | 26 | 2.0 | 3.0 | 0.00 | 0.00 | 0.00 | 74 | 1016.3 |
| 20260902103010 | 80 | 26 | 3.0 | 3.0 | 0.00 | 0.00 | 0.00 | 73 | 1016.2 |
| 20260902102512 | 81 | 26 | 2.0 | 2.0 | 0.00 | 0.00 | 0.00 | 73 | 1016.2 |
| 20260902102010 | 81 | 26 | 2.0 | 3.0 | 0.00 | 0.00 | 0.00 | 73 | 1016.3 |
| 20260902101504 | 81 | 28 | 1.0 | 3.0 | 0.00 | 0.00 | 0.00 | 73 | 1016.2 |
| 20260902101013 | 81 | 27 | 2.0 | 3.0 | 0.00 | 0.00 | 0.00 | 73 | 1016.1 |
| 20260902100504 | 81 | 28 | 2.0 | 3.0 | 0.00 | 0.00 | 0.00 | 72 | 1016.1 |
| 20260902100015 | 81 | 29 | 1.0 | 3.0 | 0.00 | 0.00 | 0.00 | 72 | 1016.1 |
| 20260902095504 | 81 | 27 | 3.0 | 3.0 | 0.00 | 0.00 | 0.00 | 71 | 1016.1 |
| 20260902095003 | 82 | 27 | 2.0 | 2.0 | 0.00 | 0.00 | 0.00 | 70 | 1016.1 |
| 20260902094503 | 82 | 32 | 1.0 | 2.0 | 0.00 | 0.00 | 0.00 | 70 | 1016.1 |
| 20260902094002 | 82 | 31 | 1.0 | 2.0 | 0.00 | 0.00 | 0.00 | 70 | 1016.1 |
| 20260902093502 | 82 | 32 | 1.0 | 4.0 | 0.00 | 0.00 | 0.00 | 69 | 1016.2 |
| 20260902093000 | 82 | 0 | 0.0 | 5.0 | 0.00 | 0.00 | 0.00 | 69 | 1016.2 |
| 20260902092500 | 82 | 33 | 1.0 | 5.0 | 0.00 | 0.00 | 0.00 | 69 | 1016.1 |
| 20260902091958 | 82 | 30 | 2.0 | 5.0 | 0.00 | 0.00 | 0.00 | 69 | 1016.2 |
| 20260902091457 | 82 | 30 | 3.0 | 5.0 | 0.00 | 0.00 | 0.00 | 69 | 1016.2 |
| 20260902090958 | 83 | 28 | 2.0 | 4.0 | 0.00 | 0.00 | 0.00 | 69 | 1016.2 |
| 20260902090500 | 83 | 29 | 3.0 | 3.0 | 0.00 | 0.00 | 0.00 | 69 | 1016.3 |
| 20260902090001 | 83 | 30 | 2.0 | 4.0 | 0.00 | 0.00 | 0.00 | 68 | 1016.4 |
| 20260902085459 | 83 | 28 | 2.0 | 4.0 | 0.00 | 0.00 | 0.00 | 68 | 1016.3 |
| 20260902084958 | 83 | 28 | 1.0 | 4.0 | 0.00 | 0.00 | 0.00 | 68 | 1016.2 |
| 20260902084458 | 83 | 27 | 2.0 | 3.0 | 0.00 | 0.00 | 0.00 | 68 | 1016.2 |
| 20260902083957 | 83 | 26 | 2.0 | 3.0 | 0.00 | 0.00 | 0.00 | 67 | 1016.1 |
| 20260902083458 | 83 | 170 | 1.0 | 5.0 | 0.00 | 0.00 | 0.00 | 67 | 1016.2 |
| 20260902082959 | 84 | 173 | 2.0 | 6.0 | 0.00 | 0.00 | 0.00 | 67 | 1016.2 |
| 20260902082458 | 84 | 173 | 1.0 | 6.0 | 0.00 | 0.00 | 0.00 | 67 | 1016.3 |
| 20260902081957 | 84 | 174 | 1.0 | 5.0 | 0.00 | 0.00 | 0.00 | 67 | 1016.2 |
| 20260902081457 | 84 | 187 | 2.0 | 5.0 | 0.00 | 0.00 | 0.00 | 66 | 1016.2 |
| 20260902080958 | 84 | 178 | 2.0 | 6.0 | 0.00 | 0.00 | 0.00 | 66 | 1016.3 |
| 20260902080458 | 84 | 174 | 5.0 | 6.0 | 0.00 | 0.00 | 0.00 | 66 | 1016.3 |
| 20260902075957 | 84 | 178 | 3.0 | 8.0 | 0.00 | 0.00 | 0.00 | 66 | 1016.2 |
| 20260902075457 | 85 | 165 | 4.0 | 8.0 | 0.00 | 0.00 | 0.00 | 65 | 1016.3 |
| 20260902074957 | 85 | 213 | 4.0 | 8.0 | 0.00 | 0.00 | 0.00 | 65 | 1016.4 |
| 20260902074456 | 85 | 198 | 2.0 | 8.0 | 0.00 | 0.00 | 0.00 | 65 | 1016.3 |
| 20260902073955 | 85 | 199 | 4.0 | 7.0 | 0.00 | 0.00 | 0.00 | 65 | 1016.3 |
| 20260902073456 | 85 | 175 | 3.0 | 7.0 | 0.00 | 0.00 | 0.00 | 65 | 1016.3 |
| 20260902072952 | 85 | 209 | 3.0 | 8.0 | 0.00 | 0.00 | 0.00 | 65 | 1016.3 |
| 20260902072453 | 85 | 169 | 5.0 | 10.0 | 0.00 | 0.00 | 0.00 | 65 | 1016.4 |
| 20260902071956 | 85 | 162 | 5.0 | 10.0 | 0.00 | 0.00 | 0.00 | 64 | 1016.4 |
| 20260902071453 | 85 | 144 | 5.0 | 10.0 | 0.00 | 0.00 | 0.00 | 65 | 1016.3 |
| 20260902070954 | 85 | 152 | 5.0 | 9.0 | 0.00 | 0.00 | 0.00 | 64 | 1016.4 |
| 20260902070455 | 85 | 217 | 4.0 | 9.0 | 0.00 | 0.00 | 0.00 | 64 | 1016.5 |
| 20260902065953 | 85 | 159 | 4.0 | 10.0 | 0.00 | 0.00 | 0.00 | 64 | 1016.4 |
| 20260902065452 | 86 | 217 | 3.0 | 10.0 | 0.00 | 0.00 | 0.00 | 64 | 1016.2 |
| 20260902064951 | 86 | 218 | 6.0 | 8.0 | 0.00 | 0.00 | 0.00 | 64 | 1016.4 |
| 20260902064450 | 86 | 153 | 4.0 | 8.0 | 0.00 | 0.00 | 0.00 | 64 | 1016.4 |
| 20260902063953 | 86 | 170 | 4.0 | 8.0 | 0.00 | 0.00 | 0.00 | 64 | 1016.3 |
| 20260902063451 | 86 | 183 | 5.0 | 7.0 | 0.00 | 0.00 | 0.00 | 64 | 1016.3 |
| 20260902062951 | 86 | 184 | 4.0 | 9.0 | 0.00 | 0.00 | 0.00 | 64 | 1016.3 |
| 20260902062450 | 86 | 183 | 3.0 | 11.0 | 0.00 | 0.00 | 0.00 | 64 | 1016.2 |
| 20260902061949 | 86 | 175 | 6.0 | 11.0 | 0.00 | 0.00 | 0.00 | 63 | 1016.1 |
| 20260902061448 | 86 | 142 | 6.0 | 11.0 | 0.00 | 0.00 | 0.00 | 63 | 1016.1 |
| 20260902060948 | 86 | 188 | 7.0 | 14.0 | 0.00 | 0.00 | 0.00 | 63 | 1016.2 |
| 20260902060448 | 87 | 178 | 4.0 | 14.0 | 0.00 | 0.00 | 0.00 | 63 | 1016.1 |
| 20260902055947 | 87 | 163 | 6.0 | 12.0 | 0.00 | 0.00 | 0.00 | 63 | 1016.1 |
| 20260902055448 | 87 | 173 | 5.0 | 11.0 | 0.00 | 0.00 | 0.00 | 63 | 1016.0 |
| 20260902054947 | 87 | 166 | 6.0 | 11.0 | 0.00 | 0.00 | 0.00 | 62 | 1015.8 |
| 20260902054447 | 87 | 128 | 8.0 | 11.0 | 0.00 | 0.00 | 0.00 | 62 | 1015.9 |
| 20260902053948 | 87 | 134 | 9.0 | 9.0 | 0.00 | 0.00 | 0.00 | 61 | 1015.8 |
| 20260902053447 | 87 | 150 | 4.0 | 10.0 | 0.00 | 0.00 | 0.00 | 61 | 1015.8 |
| 20260902053047 | 88 | 167 | 5.0 | 13.0 | 0.00 | 0.00 | 0.00 | 60 | 1015.9 |
| 20260902052547 | 88 | 162 | 4.0 | 13.0 | 0.00 | 0.00 | 0.00 | 60 | 1015.7 |
| 20260902052047 | 88 | 142 | 5.0 | 13.0 | 0.00 | 0.00 | 0.00 | 59 | 1015.8 |
| 20260902051645 | 88 | 154 | 4.0 | 12.0 | 0.00 | 0.00 | 0.00 | 59 | 1015.8 |
| 20260902051048 | 89 | 150 | 5.0 | 13.0 | 0.00 | 0.00 | 0.00 | 58 | 1015.8 |
| 20260902050546 | 89 | 138 | 10.0 | 13.0 | 0.00 | 0.00 | 0.00 | 58 | 1015.9 |
| 20260902050143 | 89 | 144 | 10.0 | 18.0 | 0.00 | 0.00 | 0.00 | 57 | 1015.8 |
| 20260902045644 | 89 | 143 | 11.0 | 18.0 | 0.00 | 0.00 | 0.00 | 57 | 1015.8 |
| 20260902045144 | 89 | 148 | 9.0 | 18.0 | 0.00 | 0.00 | 0.00 | 57 | 1015.7 |
| 20260902044642 | 89 | 204 | 7.0 | 11.0 | 0.00 | 0.00 | 0.00 | 58 | 1015.7 |
| 20260902044141 | 89 | 157 | 3.0 | 6.0 | 0.00 | 0.00 | 0.00 | 58 | 1015.7 |
| 20260902043642 | 89 | 156 | 3.0 | 5.0 | 0.00 | 0.00 | 0.00 | 58 | 1015.6 |
| 20260902043142 | 89 | 154 | 4.0 | 3.0 | 0.00 | 0.00 | 0.00 | 57 | 1015.5 |
| 20260902042641 | 89 | 156 | 1.0 | 3.0 | 0.00 | 0.00 | 0.00 | 57 | 1015.5 |
| 20260902042142 | 90 | 157 | 3.0 | 3.0 | 0.00 | 0.00 | 0.00 | 57 | 1015.4 |
| 20260902041643 | 90 | 155 | 1.0 | 5.0 | 0.00 | 0.00 | 0.00 | 57 | 1015.4 |
| 20260902041140 | 90 | 155 | 2.0 | 5.0 | 0.00 | 0.00 | 0.00 | 57 | 1015.4 |
| 20260902040641 | 90 | 156 | 2.0 | 5.0 | 0.00 | 0.00 | 0.00 | 56 | 1015.4 |
| 20260902040140 | 90 | 157 | 2.0 | 6.0 | 0.00 | 0.00 | 0.00 | 56 | 1015.3 |
| 20260902035640 | 90 | 155 | 3.0 | 7.0 | 0.00 | 0.00 | 0.00 | 56 | 1015.3 |
| 20260902035140 | 90 | 153 | 2.0 | 7.0 | 0.00 | 0.00 | 0.00 | 56 | 1015.3 |
| 20260902034639 | 90 | 142 | 3.0 | 7.0 | 0.00 | 0.00 | 0.00 | 56 | 1015.4 |
| 20260902034139 | 90 | 166 | 4.0 | 7.0 | 0.00 | 0.00 | 0.00 | 55 | 1015.5 |
| 20260902033638 | 91 | 159 | 7.0 | 7.0 | 0.00 | 0.00 | 0.00 | 55 | 1015.3 |
| 20260902033138 | 90 | 145 | 3.0 | 7.0 | 0.00 | 0.00 | 0.00 | 55 | 1015.5 |
| 20260902032639 | 90 | 153 | 1.0 | 7.0 | 0.00 | 0.00 | 0.00 | 56 | 1015.3 |
| 20260902032138 | 90 | 147 | 4.0 | 5.0 | 0.00 | 0.00 | 0.00 | 56 | 1015.3 |
| 20260902031636 | 90 | 147 | 2.0 | 5.0 | 0.00 | 0.00 | 0.00 | 56 | 1015.3 |
| 20260902031137 | 90 | 143 | 2.0 | 5.0 | 0.00 | 0.00 | 0.00 | 55 | 1015.2 |
| 20260902030637 | 91 | 132 | 2.0 | 5.0 | 0.00 | 0.00 | 0.00 | 55 | 1015.2 |
| 20260902030137 | 91 | 131 | 2.0 | 4.0 | 0.00 | 0.00 | 0.00 | 55 | 1015.1 |
| 20260902025636 | 91 | 130 | 2.0 | 5.0 | 0.00 | 0.00 | 0.00 | 55 | 1015.0 |
| 20260902025135 | 91 | 130 | 2.0 | 5.0 | 0.00 | 0.00 | 0.00 | 54 | 1014.9 |
| 20260902024634 | 91 | 131 | 3.0 | 5.0 | 0.00 | 0.00 | 0.00 | 54 | 1014.8 |
| 20260902024137 | 91 | 130 | 2.0 | 5.0 | 0.00 | 0.00 | 0.00 | 54 | 1014.8 |
| 20260902023634 | 91 | 0 | 0.0 | 5.0 | 0.00 | 0.00 | 0.00 | 54 | 1014.8 |
| 20260902023135 | 91 | 132 | 3.0 | 5.0 | 0.00 | 0.00 | 0.00 | 53 | 1014.6 |
| 20260902022635 | 92 | 133 | 3.0 | 5.0 | 0.00 | 0.00 | 0.00 | 53 | 1014.5 |
| 20260902022134 | 92 | 30 | 1.0 | 5.0 | 0.00 | 0.00 | 0.00 | 53 | 1014.4 |
| 20260902021633 | 92 | 32 | 1.0 | 5.0 | 0.00 | 0.00 | 0.00 | 53 | 1014.4 |
| 20260902021135 | 92 | 34 | 3.0 | 6.0 | 0.00 | 0.00 | 0.00 | 53 | 1014.3 |
| 20260902020633 | 92 | 36 | 3.0 | 6.0 | 0.00 | 0.00 | 0.00 | 52 | 1014.3 |
| 20260902020134 | 92 | 36 | 3.0 | 6.0 | 0.00 | 0.00 | 0.00 | 52 | 1014.2 |
| 20260902015632 | 92 | 42 | 2.0 | 5.0 | 0.00 | 0.00 | 0.00 | 52 | 1014.2 |
| 20260902015133 | 92 | 38 | 3.0 | 5.0 | 0.00 | 0.00 | 0.00 | 52 | 1014.2 |
| 20260902014633 | 92 | 38 | 1.0 | 8.0 | 0.00 | 0.00 | 0.00 | 52 | 1014.2 |
| 20260902014132 | 92 | 39 | 1.0 | 8.0 | 0.00 | 0.00 | 0.00 | 52 | 1014.1 |
| 20260902013631 | 92 | 38 | 4.0 | 7.0 | 0.00 | 0.00 | 0.00 | 52 | 1014.0 |
| 20260902013131 | 92 | 40 | 4.0 | 5.0 | 0.00 | 0.00 | 0.00 | 51 | 1014.0 |
| 20260902012630 | 92 | 34 | 3.0 | 4.0 | 0.00 | 0.00 | 0.00 | 51 | 1014.0 |
| 20260902012130 | 93 | 31 | 3.0 | 4.0 | 0.00 | 0.00 | 0.00 | 51 | 1013.9 |
| 20260902011631 | 93 | 31 | 3.0 | 4.0 | 0.00 | 0.00 | 0.00 | 51 | 1013.8 |
| 20260902011129 | 93 | 33 | 3.0 | 4.0 | 0.00 | 0.00 | 0.00 | 50 | 1013.8 |
| 20260902010632 | 93 | 34 | 3.0 | 6.0 | 0.00 | 0.00 | 0.00 | 50 | 1013.8 |
| 20260902010129 | 94 | 29 | 2.0 | 7.0 | 0.00 | 0.00 | 0.00 | 49 | 1013.7 |
| 20260902005627 | 94 | 113 | 4.0 | 7.0 | 0.00 | 0.00 | 0.00 | 49 | 1013.8 |
| 20260902005129 | 94 | 119 | 2.0 | 7.0 | 0.00 | 0.00 | 0.00 | 48 | 1013.7 |
| 20260902004628 | 94 | 121 | 3.0 | 8.0 | 0.00 | 0.00 | 0.00 | 48 | 1013.7 |
| 20260902004128 | 95 | 124 | 4.0 | 8.0 | 0.00 | 0.00 | 0.00 | 47 | 1013.8 |
| 20260902003626 | 95 | 102 | 6.0 | 8.0 | 0.00 | 0.00 | 0.00 | 47 | 1013.8 |
| 20260902003128 | 95 | 123 | 4.0 | 9.0 | 0.00 | 0.00 | 0.00 | 47 | 1013.8 |
| 20260902002627 | 95 | 110 | 8.0 | 9.0 | 0.00 | 0.00 | 0.00 | 47 | 1013.9 |
| 20260902002127 | 95 | 130 | 7.0 | 11.0 | 0.00 | 0.00 | 0.00 | 47 | 1013.9 |
| 20260902001627 | 96 | 125 | 4.0 | 11.0 | 0.00 | 0.00 | 0.00 | 48 | 1013.9 |
| 20260902001125 | 96 | 147 | 4.0 | 11.0 | 0.00 | 0.00 | 0.00 | 47 | 1013.9 |
| 20260902000627 | 96 | 136 | 8.0 | 9.0 | 0.00 | 0.00 | 0.00 | 47 | 1014.0 |
| 20260902000149 | 96 | 150 | 3.0 | 11.0 | 0.00 | 0.00 | 0.00 | 47 | 1014.0 |
| 20260901235634 | 96 | 112 | 4.0 | 11.0 | 0.00 | 0.00 | 0.00 | 47 | 1014.0 |
| 20260901235157 | 96 | 127 | 8.0 | 9.0 | 0.00 | 0.00 | 0.00 | 47 | 1014.0 |
| 20260901234625 | 96 | 105 | 7.0 | 10.0 | 0.00 | 0.00 | 0.00 | 47 | 1014.0 |
| 20260901234109 | 96 | 136 | 4.0 | 10.0 | 0.00 | 0.00 | 0.00 | 46 | 1014.1 |
| 20260901233516 | 97 | 146 | 2.0 | 6.0 | 0.00 | 0.00 | 0.00 | 44 | 1014.1 |
| 20260901232923 | 97 | 156 | 1.0 | 9.0 | 0.00 | 0.00 | 0.00 | 44 | 1014.1 |
| 20260901232437 | 98 | 198 | 4.0 | 9.0 | 0.00 | 0.00 | 0.00 | 43 | 1014.1 |
| 20260901231955 | 98 | 139 | 7.0 | 8.0 | 0.00 | 0.00 | 0.00 | 44 | 1014.2 |
| 20260901231451 | 98 | 242 | 1.0 | 8.0 | 0.00 | 0.00 | 0.00 | 44 | 1014.2 |
| 20260901230924 | 98 | 162 | 5.0 | 12.0 | 0.00 | 0.00 | 0.00 | 44 | 1014.2 |
| 20260901230441 | 98 | 143 | 3.0 | 12.0 | 0.00 | 0.00 | 0.00 | 44 | 1014.2 |
| 20260901225923 | 98 | 103 | 7.0 | 11.0 | 0.00 | 0.00 | 0.00 | 44 | 1014.2 |
| 20260901225434 | 98 | 96 | 9.0 | 12.0 | 0.00 | 0.00 | 0.00 | 43 | 1014.2 |
| 20260901224933 | 98 | 120 | 7.0 | 13.0 | 0.00 | 0.00 | 0.00 | 44 | 1014.2 |
| 20260901224426 | 98 | 109 | 7.0 | 13.0 | 0.00 | 0.00 | 0.00 | 44 | 1014.1 |
| 20260901223936 | 99 | 117 | 11.0 | 12.0 | 0.00 | 0.00 | 0.00 | 43 | 1014.1 |
| 20260901223422 | 99 | 69 | 2.0 | 10.0 | 0.00 | 0.00 | 0.00 | 42 | 1014.1 |
| 20260901222924 | 99 | 83 | 3.0 | 8.0 | 0.00 | 0.00 | 0.00 | 43 | 1014.2 |
| 20260901222418 | 99 | 174 | 2.0 | 8.0 | 0.00 | 0.00 | 0.00 | 42 | 1014.1 |
| 20260901221920 | 98 | 225 | 2.0 | 7.0 | 0.00 | 0.00 | 0.00 | 42 | 1014.2 |
| 20260901221418 | 98 | 225 | 3.0 | 11.0 | 0.00 | 0.00 | 0.00 | 42 | 1014.2 |
| 20260901220919 | 98 | 150 | 2.0 | 11.0 | 0.00 | 0.00 | 0.00 | 42 | 1014.2 |
| 20260901220419 | 98 | 146 | 6.0 | 10.0 | 0.00 | 0.00 | 0.00 | 43 | 1014.3 |
| 20260901215919 | 98 | 61 | 4.0 | 11.0 | 0.00 | 0.00 | 0.00 | 42 | 1014.2 |
| 20260901215421 | 98 | 160 | 5.0 | 11.0 | 0.00 | 0.00 | 0.00 | 42 | 1014.2 |
| 20260901214916 | 98 | 169 | 4.0 | 9.0 | 0.00 | 0.00 | 0.00 | 42 | 1014.4 |
| 20260901214418 | 98 | 136 | 4.0 | 15.0 | 0.00 | 0.00 | 0.00 | 42 | 1014.4 |
| 20260901213916 | 98 | 132 | 3.0 | 15.0 | 0.00 | 0.00 | 0.00 | 43 | 1014.4 |
| 20260901213416 | 98 | 67 | 5.0 | 13.0 | 0.00 | 0.00 | 0.00 | 43 | 1014.5 |
| 20260901212916 | 98 | 40 | 3.0 | 9.0 | 0.00 | 0.00 | 0.00 | 42 | 1014.6 |
| 20260901212417 | 98 | 128 | 2.0 | 13.0 | 0.00 | 0.00 | 0.00 | 44 | 1014.6 |
| 20260901211916 | 98 | 132 | 5.0 | 13.0 | 0.00 | 0.00 | 0.00 | 44 | 1014.6 |
| 20260901211415 | 98 | 53 | 4.0 | 10.0 | 0.00 | 0.00 | 0.00 | 44 | 1014.7 |
| 20260901210915 | 98 | 119 | 4.0 | 9.0 | 0.00 | 0.00 | 0.00 | 44 | 1014.8 |
| 20260901210415 | 98 | 115 | 3.0 | 10.0 | 0.00 | 0.00 | 0.00 | 44 | 1014.8 |
| 20260901205915 | 98 | 153 | 3.0 | 10.0 | 0.00 | 0.00 | 0.00 | 44 | 1014.9 |
| 20260901205414 | 98 | 195 | 8.0 | 9.0 | 0.00 | 0.00 | 0.00 | 44 | 1015.0 |
| 20260901204913 | 98 | 130 | 3.0 | 11.0 | 0.00 | 0.00 | 0.00 | 44 | 1014.9 |
| 20260901204414 | 98 | 149 | 3.0 | 11.0 | 0.00 | 0.00 | 0.00 | 45 | 1015.0 |
| 20260901203914 | 98 | 171 | 5.0 | 14.0 | 0.00 | 0.00 | 0.00 | 45 | 1015.1 |
| 20260901203415 | 97 | 164 | 5.0 | 14.0 | 0.00 | 0.00 | 0.00 | 44 | 1015.2 |
| 20260901202913 | 98 | 186 | 11.0 | 14.0 | 0.00 | 0.00 | 0.00 | 44 | 1015.2 |
| 20260901202412 | 97 | 173 | 5.0 | 13.0 | 0.00 | 0.00 | 0.00 | 43 | 1015.2 |
| 20260901201913 | 97 | 121 | 4.0 | 10.0 | 0.00 | 0.00 | 0.00 | 46 | 1015.3 |
| 20260901201412 | 97 | 124 | 3.0 | 10.0 | 0.00 | 0.00 | 0.00 | 45 | 1015.4 |
| 20260901200914 | 98 | 138 | 4.0 | 10.0 | 0.00 | 0.00 | 0.00 | 45 | 1015.6 |
| 20260901200414 | 97 | 95 | 6.0 | 7.0 | 0.00 | 0.00 | 0.00 | 45 | 1015.5 |
| 20260901195912 | 97 | 38 | 2.0 | 14.0 | 0.00 | 0.00 | 0.00 | 47 | 1015.7 |
| 20260901195425 | 96 | 178 | 4.0 | 14.0 | 0.00 | 0.00 | 0.00 | 48 | 1015.7 |
| 20260901194913 | 97 | 89 | 7.0 | 13.0 | 0.00 | 0.00 | 0.00 | 48 | 1015.7 |
| 20260901194412 | 96 | 90 | 7.0 | 10.0 | 0.00 | 0.00 | 0.00 | 49 | 1015.7 |
| 20260901193914 | 96 | 131 | 9.0 | 10.0 | 0.00 | 0.00 | 0.00 | 48 | 1015.7 |
| 20260901193412 | 96 | 100 | 4.0 | 10.0 | 0.00 | 0.00 | 0.00 | 48 | 1015.8 |
| 20260901192912 | 96 | 134 | 3.0 | 11.0 | 0.00 | 0.00 | 0.00 | 47 | 1015.9 |
| 20260901192413 | 96 | 108 | 6.0 | 11.0 | 0.00 | 0.00 | 0.00 | 47 | 1016.0 |
| 20260901191915 | 96 | 155 | 7.0 | 11.0 | 0.00 | 0.00 | 0.00 | 47 | 1016.1 |
| 20260901191414 | 96 | 153 | 4.0 | 11.0 | 0.00 | 0.00 | 0.00 | 47 | 1016.1 |
| 20260901190918 | 96 | 95 | 3.0 | 11.0 | 0.00 | 0.00 | 0.00 | 48 | 1016.3 |
| 20260901190414 | 97 | 198 | 8.0 | 11.0 | 0.00 | 0.00 | 0.00 | 48 | 1016.3 |
| 20260901185916 | 96 | 114 | 4.0 | 11.0 | 0.00 | 0.00 | 0.00 | 47 | 1016.4 |
| 20260901185414 | 96 | 133 | 3.0 | 10.0 | 0.00 | 0.00 | 0.00 | 49 | 1016.4 |
| 20260901184915 | 96 | 61 | 6.0 | 11.0 | 0.00 | 0.00 | 0.00 | 48 | 1016.4 |
| 20260901184413 | 96 | 69 | 5.0 | 11.0 | 0.00 | 0.00 | 0.00 | 48 | 1016.5 |
| 20260901183912 | 95 | 76 | 5.0 | 11.0 | 0.00 | 0.00 | 0.00 | 50 | 1016.6 |
| 20260901183413 | 95 | 90 | 2.0 | 11.0 | 0.00 | 0.00 | 0.00 | 50 | 1016.8 |
| 20260901182912 | 96 | 151 | 10.0 | 10.0 | 0.00 | 0.00 | 0.00 | 49 | 1016.9 |
| 20260901182411 | 95 | 67 | 3.0 | 10.0 | 0.00 | 0.00 | 0.00 | 50 | 1016.9 |
| 20260901181914 | 96 | 43 | 5.0 | 11.0 | 0.00 | 0.00 | 0.00 | 50 | 1016.9 |
| 20260901181413 | 96 | 115 | 2.0 | 11.0 | 0.00 | 0.00 | 0.00 | 49 | 1016.9 |
| 20260901180913 | 95 | 123 | 4.0 | 9.0 | 0.00 | 0.00 | 0.00 | 50 | 1016.9 |
| 20260901180411 | 95 | 194 | 3.0 | 11.0 | 0.00 | 0.00 | 0.00 | 52 | 1017.0 |
| 20260901175912 | 95 | 147 | 2.0 | 11.0 | 0.00 | 0.00 | 0.00 | 51 | 1017.1 |
| 20260901175413 | 95 | 189 | 6.0 | 9.0 | 0.00 | 0.00 | 0.00 | 51 | 1017.2 |
| 20260901174911 | 95 | 230 | 1.0 | 10.0 | 0.00 | 0.00 | 0.00 | 50 | 1017.3 |
| 20260901174412 | 94 | 220 | 2.0 | 10.0 | 0.00 | 0.00 | 0.00 | 51 | 1017.4 |
| 20260901173913 | 95 | 113 | 8.0 | 10.0 | 0.00 | 0.00 | 0.00 | 51 | 1017.5 |
| 20260901173412 | 94 | 121 | 1.0 | 10.0 | 0.00 | 0.00 | 0.00 | 51 | 1017.5 |
| 20260901172914 | 94 | 113 | 6.0 | 9.0 | 0.00 | 0.00 | 0.00 | 51 | 1017.5 |
| 20260901172423 | 94 | 88 | 4.0 | 10.0 | 0.00 | 0.00 | 0.00 | 53 | 1017.7 |
| 20260901171913 | 94 | 94 | 1.0 | 10.0 | 0.00 | 0.00 | 0.00 | 52 | 1017.8 |
| 20260901171413 | 94 | 137 | 7.0 | 10.0 | 0.00 | 0.00 | 0.00 | 51 | 1017.7 |
| 20260901170915 | 94 | 99 | 3.0 | 8.0 | 0.00 | 0.00 | 0.00 | 52 | 1017.9 |
| 20260901170400 | 94 | 167 | 4.0 | 8.0 | 0.00 | 0.00 | 0.00 | 53 | 1017.8 |
| 20260901165906 | 93 | 227 | 1.0 | 10.0 | 0.00 | 0.00 | 0.00 | 54 | 1018.0 |
| 20260901165403 | 93 | 205 | 3.0 | 12.0 | 0.00 | 0.00 | 0.00 | 54 | 1018.0 |
| 20260901164912 | 93 | 203 | 4.0 | 12.0 | 0.00 | 0.00 | 0.00 | 54 | 1018.2 |
| 20260901164402 | 93 | 177 | 5.0 | 12.0 | 0.00 | 0.00 | 0.00 | 54 | 1018.2 |
| 20260901163903 | 92 | 142 | 8.0 | 9.0 | 0.00 | 0.00 | 0.00 | 56 | 1018.3 |
| 20260901163404 | 92 | 199 | 7.0 | 10.0 | 0.00 | 0.00 | 0.00 | 56 | 1018.3 |
| 20260901162905 | 92 | 190 | 3.0 | 10.0 | 0.00 | 0.00 | 0.00 | 55 | 1018.3 |
| 20260901162405 | 92 | 205 | 2.0 | 10.0 | 0.00 | 0.00 | 0.00 | 55 | 1018.2 |
| 20260901161901 | 92 | 220 | 3.0 | 10.0 | 0.00 | 0.00 | 0.00 | 56 | 1018.3 |
| 20260901161405 | 92 | 255 | 3.0 | 10.0 | 0.00 | 0.00 | 0.00 | 57 | 1018.2 |
| 20260901160901 | 91 | 155 | 3.0 | 10.0 | 0.00 | 0.00 | 0.00 | 57 | 1018.3 |
| 20260901160402 | 92 | 130 | 10.0 | 7.0 | 0.00 | 0.00 | 0.00 | 57 | 1018.2 |
| 20260901155903 | 91 | 248 | 1.0 | 8.0 | 0.00 | 0.00 | 0.00 | 57 | 1018.2 |
| 20260901155401 | 91 | 182 | 3.0 | 8.0 | 0.00 | 0.00 | 0.00 | 58 | 1018.3 |
| 20260901154900 | 91 | 205 | 6.0 | 7.0 | 0.00 | 0.00 | 0.00 | 58 | 1018.2 |
| 20260901154400 | 90 | 222 | 3.0 | 8.0 | 0.00 | 0.00 | 0.00 | 58 | 1018.3 |
| 20260901153900 | 90 | 204 | 2.0 | 8.0 | 0.00 | 0.00 | 0.00 | 60 | 1018.3 |
| 20260901153401 | 90 | 225 | 4.0 | 8.0 | 0.00 | 0.00 | 0.00 | 59 | 1018.3 |
| 20260901152902 | 90 | 217 | 4.0 | 8.0 | 0.00 | 0.00 | 0.00 | 60 | 1018.2 |
| 20260901152358 | 89 | 226 | 2.0 | 10.0 | 0.00 | 0.00 | 0.00 | 61 | 1018.2 |
| 20260901151858 | 89 | 226 | 6.0 | 10.0 | 0.00 | 0.00 | 0.00 | 62 | 1018.1 |
| 20260901151359 | 88 | 245 | 7.0 | 7.0 | 0.00 | 0.00 | 0.00 | 63 | 1018.1 |
| 20260901150859 | 88 | 224 | 1.0 | 7.0 | 0.00 | 0.00 | 0.00 | 63 | 1018.2 |
| 20260901150358 | 88 | 210 | 4.0 | 8.0 | 0.00 | 0.00 | 0.00 | 64 | 1018.2 |
| 20260901145858 | 87 | 238 | 4.0 | 8.0 | 0.00 | 0.00 | 0.00 | 65 | 1018.2 |
| 20260901145357 | 87 | 166 | 6.0 | 8.0 | 0.00 | 0.00 | 0.00 | 65 | 1018.3 |
| 20260901144858 | 87 | 190 | 1.0 | 7.0 | 0.00 | 0.00 | 0.00 | 65 | 1018.3 |
| 20260901144357 | 87 | 223 | 3.0 | 7.0 | 0.00 | 0.00 | 0.00 | 66 | 1018.2 |
| 20260901143857 | 86 | 174 | 2.0 | 6.0 | 0.00 | 0.00 | 0.00 | 66 | 1018.3 |
| 20260901143400 | 86 | 208 | 4.0 | 7.0 | 0.00 | 0.00 | 0.00 | 67 | 1018.4 |
| 20260901142858 | 85 | 217 | 4.0 | 7.0 | 0.00 | 0.00 | 0.00 | 68 | 1018.4 |
| 20260901142357 | 85 | 207 | 5.0 | 6.0 | 0.00 | 0.00 | 0.00 | 68 | 1018.4 |
| 20260901141856 | 85 | 219 | 2.0 | 7.0 | 0.00 | 0.00 | 0.00 | 69 | 1018.4 |
| 20260901141356 | 84 | 212 | 3.0 | 7.0 | 0.00 | 0.00 | 0.00 | 69 | 1018.5 |
| 20260901140855 | 84 | 144 | 4.0 | 7.0 | 0.00 | 0.00 | 0.00 | 70 | 1018.4 |
| 20260901140354 | 84 | 151 | 3.0 | 7.0 | 0.00 | 0.00 | 0.00 | 70 | 1018.5 |
| 20260901135855 | 84 | 136 | 4.0 | 7.0 | 0.00 | 0.00 | 0.00 | 70 | 1018.4 |
| 20260901135356 | 83 | 148 | 5.0 | 8.0 | 0.00 | 0.00 | 0.00 | 71 | 1018.4 |
| 20260901134854 | 83 | 160 | 4.0 | 9.0 | 0.00 | 0.00 | 0.00 | 71 | 1018.4 |
| 20260901134355 | 83 | 155 | 4.0 | 9.0 | 0.00 | 0.00 | 0.00 | 72 | 1018.5 |
| 20260901133858 | 83 | 159 | 5.0 | 8.0 | 0.00 | 0.00 | 0.00 | 72 | 1018.3 |
| 20260901133357 | 82 | 170 | 4.0 | 8.0 | 0.00 | 0.00 | 0.00 | 73 | 1018.3 |
| 20260901132856 | 82 | 149 | 4.0 | 5.0 | 0.00 | 0.00 | 0.00 | 73 | 1018.2 |
| 20260901132355 | 81 | 184 | 1.0 | 5.0 | 0.00 | 0.00 | 0.00 | 74 | 1018.2 |
| 20260901131854 | 81 | 198 | 2.0 | 5.0 | 0.00 | 0.00 | 0.00 | 75 | 1018.2 |
| 20260901131357 | 81 | 204 | 3.0 | 5.0 | 0.00 | 0.00 | 0.00 | 75 | 1018.2 |
| 20260901130854 | 80 | 211 | 2.0 | 4.0 | 0.00 | 0.00 | 0.00 | 76 | 1018.2 |
| 20260901130353 | 80 | 206 | 2.0 | 4.0 | 0.00 | 0.00 | 0.00 | 76 | 1018.0 |
| 20260901125854 | 80 | 207 | 1.0 | 4.0 | 0.00 | 0.00 | 0.00 | 77 | 1017.9 |
| 20260901125352 | 80 | 207 | 1.0 | 3.0 | 0.00 | 0.00 | 0.00 | 77 | 1018.0 |
| 20260901124852 | 79 | 209 | 2.0 | 2.0 | 0.00 | 0.00 | 0.00 | 77 | 1017.8 |
| 20260901124352 | 79 | 0 | 0.0 | 1.0 | 0.00 | 0.00 | 0.00 | 77 | 1017.7 |
| 20260901123853 | 79 | 0 | 0.0 | 0.0 | 0.00 | 0.00 | 0.00 | 78 | 1017.8 |
| 20260901123352 | 78 | 0 | 0.0 | 1.0 | 0.00 | 0.00 | 0.00 | 78 | 1017.7 |